sat.trackr.live / text

‹ back to catalog

IRIDE FM5

NORAD 66699 · 2025-276AK

PAYLOAD ACTIVE UNKNOWN

§ Identity

Operator
Country
IT
Launch date
2025-11-28
Launch site
AFWTR
Launch vehicle
Mass (kg)
RCS (m²)

External: N2YO · Heavens-Above · Gunter

§ Orbital elements

Epoch: 2026-05-25T03:36:25.489728Z

Period
94.75 min
Inclination
97.4203°
Eccentricity
0.0005445
Mean motion
15.19785715 rev/d
Perigee alt
502.7 km
Apogee alt
510.2 km
Semi-major
6,884.6 km
B*
3.5857e-4
RAAN
219.0934°
Arg perigee
95.3990°
Mean anomaly
264.7866°
Rev number
2,692

§ Raw data

IRIDE FM51 66699U 25276AK  26145.15029502  .00007612  00000+0  35857-3 0  99962 66699  97.4203 219.0934 0005445  95.3990 264.7866 15.19785715 26921

JSON: /api/v1/satellites/66699 · /tle

For live sub-satellite position, see the globe view (requires WebGL).

§ Visibility from observer

Set your observer location to see the next 7 days of passes ≥ 10°. The values pass through the URL so the page stays shareable.

No JS? Fill the form by hand. The geolocation button needs JavaScript.